Live-Position
3D-Globus wird geladen...
Über Starlink 4102
Group: 3 satellites
Beschreibung wird geladen...
Nächste Überflüge
Passes for default location (London). Set your location on the main map for personalized predictions.
Höhenverlauf
Loading altitude history...
No altitude history available
Zweizeiliger Elementsatz
1 53143U 22083M 26127.19777282 -.00000246 00000-0 26075-5 0 9990
2 53143 53.2173 271.4684 0001184 86.5350 273.5777 15.08838679210053
Epoch: 7. Mai 2026 •
Age: 5 hours
Aktueller Status
Höhe 540.6 km
Geschwindigkeit 7.60 km/s
Subsatellitenpunkt 28.06°N,
76.46°W
Startdatum 17. Juli 2022
Alter 3.8 years
Typ internet
Startgruppe
Falcon 9 •
Group 4-22 •
46 satellites
Starlink 4150
53134
Starlink 4023 53135
Starlink 4152 53136
Starlink 4145 53137
Starlink 4141 53138
Starlink 4185 53139
Starlink 4170 53140
Starlink 4103 53141
Starlink 4101 53142
Starlink 4100 53144
Starlink 4106 53145
Starlink 4094 53147
Starlink 4021 53149
Starlink 4040 53151
Starlink 4045 53152
Starlink 4098 53153
Starlink 4077 53154
Starlink 4088 53155
Starlink 4087 53156
Starlink 4054 53158
...and 25 more
Technische Details
Klassifizierung Payload
Masse 297.00 kg
Trockenmasse 275.00 kg
Gesamtmasse 297.00 kg
Länge 0.20 m
Durchmesser 2.80 m
Spannweite 9.00 m
Form Box + pan
Hersteller SPXS
Bus-Typ Starlink
Phasenstatus In Orbit
Besitzer/Staat SPXS/US
Most Searched
Loading...